Flag for France Weather past 2 weeks in Bastia, Corsica, France

Now
72 °F

Passing clouds.


Feels Like: 71 °F
Forecast: 64 / 77 °F
Wind: 1 mph from Southwest

Location: Bastia Airport

Current Time: Aug 21, 2014 at 10:35:11 PM

Latest Report: Aug 21, 2014 at 10:00 PM


Visibility: N/A

Pressure: 29.95 "Hg

Humidity: 83%

Dew point: 66 °F

Location of BastiaLocation

Historic Weather in Bastia — Graph

°F

Bastia temperature yesterday

Maximum temperature yesterday: 82 °F (at 12:30 PM)
Minimum temperature yesterday: 66 °F (at 4:00 AM)
Average temperature yesterday: 74 °F

Past Weeks' High & Low Weather Summary

 TemperatureHumidityPressure
High84 °F (Aug 11, 1:00 PM)94% (Aug 9, 2:30 AM)30.07 "Hg (Aug 9, 2:30 AM)
Low61 °F (Aug 18, 1:30 AM)25% (Aug 14, 11:00 AM)29.74 "Hg (Aug 13, 10:00 AM)
Average75 °F70%29.92 "Hg
* Reported Aug 6 9:00 PM — Aug 21 9:30 PM, Bastia, Weather by CustomWeather, © 2014

Note: Actual official high and low records may vary slightly from our data, if they occured in-between our weather recording intervals... More about our weather records

Advertising

Bastia weather history for previous 24 hours

 ConditionsComfort  
Time TempWeatherWind HumidityBarometerVisibility
9:30 PM
Aug 21
72 °FPassing clouds.1 mph78%29.95 "HgN/A
9:00 PM73 °FPartly sunny.2 mph74%29.95 "HgN/A
8:30 PM75 °FPartly sunny.2 mph74%29.95 "HgN/A
8:00 PM77 °FPartly sunny.3 mph69%29.95 "HgN/A
7:30 PM77 °FBroken clouds.5 mph69%29.92 "HgN/A
7:00 PM77 °FBroken clouds.No wind74%29.92 "HgN/A
6:30 PM79 °FBroken clouds.No wind65%29.92 "HgN/A
6:00 PM79 °FBroken clouds.5 mph65%29.92 "HgN/A
5:30 PM79 °FBroken clouds.5 mph70%29.92 "HgN/A
5:00 PM81 °FBroken clouds.7 mph66%29.95 "HgN/A
4:30 PM81 °FBroken clouds.9 mph66%29.95 "HgN/A
4:00 PM81 °FBroken clouds.8 mph66%29.95 "HgN/A
3:30 PM81 °FBroken clouds.1 mph62%29.95 "HgN/A
3:00 PM81 °FBroken clouds.8 mph62%29.95 "HgN/A
2:30 PM81 °FScattered clouds.9 mph66%29.95 "HgN/A
2:00 PM81 °FPassing clouds.9 mph62%29.95 "HgN/A
1:30 PM82 °FPassing clouds.9 mph62%29.95 "HgN/A
1:00 PM82 °FPassing clouds.7 mph58%29.95 "HgN/A
12:30 PM81 °FPassing clouds.8 mph66%29.95 "HgN/A
12:00 PM81 °FPassing clouds.7 mph66%29.95 "HgN/A
11:30 AM81 °FPassing clouds.9 mph62%29.95 "HgN/A
11:00 AM79 °FPassing clouds.9 mph70%29.95 "HgN/A
10:30 AM79 °FPassing clouds.9 mph70%29.95 "HgN/A
10:00 AM79 °FPassing clouds.6 mph65%29.92 "HgN/A
9:30 AM79 °FPassing clouds.2 mph58%29.92 "HgN/A
9:00 AM75 °FPassing clouds.5 mph57%29.92 "HgN/A
8:30 AM73 °FPassing clouds.3 mph61%29.92 "HgN/A
8:00 AM72 °FSunny.10 mph65%29.92 "Hg10 mi
7:30 AM70 °FPassing clouds.8 mph64%29.92 "HgN/A
7:00 AM70 °FClear.8 mph69%29.89 "Hg10 mi
6:30 AM68 °FClear.12 mph73%29.89 "Hg10 mi
6:00 AM68 °FClear.9 mph73%29.89 "Hg10 mi
5:30 AM68 °FPassing clouds.6 mph78%29.89 "HgN/A
5:00 AM66 °FPassing clouds.5 mph83%29.92 "HgN/A
4:00 AM68 °FPassing clouds.1 mph78%29.89 "HgN/A
3:30 AM68 °FClear.3 mph78%29.92 "HgN/A
3:00 AM68 °FClear.3 mph78%29.92 "HgN/A
2:30 AM70 °FClear.3 mph73%29.92 "HgN/A
1:30 AM70 °FClear.5 mph78%29.92 "HgN/A
1:00 AM70 °FClear.2 mph78%29.92 "HgN/A
12:30 AM70 °FPassing clouds.2 mph78%29.92 "HgN/A
12:00 AM70 °FPassing clouds.5 mph83%29.92 "HgN/A
11:30 PM
Aug 20
70 °FPassing clouds.2 mph78%29.95 "HgN/A
11:00 PM70 °FPassing clouds.2 mph78%29.92 "HgN/A
10:30 PM70 °FPassing clouds.No wind78%29.92 "HgN/A
10:00 PM72 °FPassing clouds.3 mph69%29.92 "HgN/A
Weather by CustomWeather, © 2014

See weather overviewHow to use our weather pages